Flag for Canada Weather past 2 weeks in Thunder Bay, Ontario, Canada

Now
68 °F

Partly sunny.


Feels Like: 68 °F
Forecast: 56 / 71 °F
Wind: 6 mph from East

Location: Thunder Bay

Current Time: Aug 22, 2014 at 8:29:45 PM

Latest Report: Aug 22, 2014 at 8:00 PM


Visibility: 20 mi

Pressure: 30.05 "Hg

Humidity: 83%

Dew point: 63 °F

Location of Thunder BayLocation

Historic Weather in Thunder Bay — Graph

°F

Thunder Bay temperature yesterday

Maximum temperature yesterday: 68 °F (at 1:00 PM)
Minimum temperature yesterday: 59 °F (at 1:00 AM)
Average temperature yesterday: 63 °F

Past Weeks' High & Low Weather Summary

 TemperatureHumidityPressure
High84 °F (Aug 15, 5:00 PM)100% (Aug 8, 4:00 AM)30.19 "Hg (Aug 8, 4:00 AM)
Low41 °F (Aug 14, 6:00 AM)33% (Aug 14, 4:00 PM)29.67 "Hg (Aug 19, 5:00 AM)
Average62 °F83%29.98 "Hg
* Reported Aug 7 7:00 PM — Aug 22 7:00 PM, Thunder Bay, Weather by CustomWeather, © 2014

Note: Actual official high and low records may vary slightly from our data, if they occured in-between our weather recording intervals... More about our weather records

Advertising

Thunder Bay weather history for previous 24 hours

 ConditionsComfort  
Time TempWeatherWind HumidityBarometerVisibility
7:00 PM
Aug 22
70 °FScattered clouds.7 mph78%30.04 "Hg20 mi
6:00 PM70 °FPartly sunny.7 mph78%30.04 "Hg20 mi
5:00 PM72 °FPartly sunny.9 mph78%30.03 "Hg20 mi
4:00 PM68 °FMostly cloudy.9 mph83%30.03 "Hg20 mi
3:00 PM68 °FMore clouds than sun.8 mph83%30.03 "Hg20 mi
2:00 PM68 °FMore clouds than sun.8 mph83%30.04 "Hg20 mi
1:00 PM64 °FLight rain. Mostly cloudy.8 mph94%30.03 "Hg20 mi
12:00 PM63 °FLight rain. Low clouds.9 mph94%30.03 "Hg15 mi
11:00 AM63 °FLow clouds.8 mph94%30.02 "Hg20 mi
10:00 AM63 °FLow clouds.9 mph94%30.01 "Hg10 mi
9:00 AM61 °FLow clouds.8 mph94%30.02 "Hg15 mi
8:00 AM61 °FMostly cloudy.5 mph94%30.01 "Hg10 mi
7:00 AM59 °FMostly cloudy.7 mph100%29.98 "Hg8 mi
6:00 AM59 °FFog.6 mph100%29.98 "Hg6 mi
5:00 AM59 °FLight rain. Fog.7 mph100%29.97 "Hg6 mi
4:00 AM59 °FLight rain. Low clouds.7 mph100%29.98 "Hg3 mi
3:00 AM61 °FLow clouds.8 mph94%29.97 "Hg8 mi
2:00 AM61 °FLight rain. Fog.8 mph94%29.98 "Hg5 mi
1:00 AM61 °FLight rain. Fog.9 mph94%29.98 "Hg2 mi
12:00 AM61 °FDrizzle. Fog.8 mph94%29.98 "Hg2 mi
11:00 PM
Aug 21
61 °FFog.8 mph94%30.00 "Hg1 mi
10:00 PM61 °FFog.8 mph100%29.98 "Hg5 mi
9:00 PM63 °FLow clouds.8 mph94%29.98 "Hg10 mi
8:00 PM63 °FMostly cloudy.7 mph88%29.98 "Hg12 mi
Weather by CustomWeather, © 2014

See weather overviewHow to use our weather pages